EDT,Max TemperatureF,Mean TemperatureF,Min TemperatureF,Max Dew PointF,MeanDew PointF,Min DewpointF,Max Humidity, Mean Humidity, Min Humidity, Max Sea Level PressureIn, Mean Sea Level PressureIn, Min Sea Level PressureIn, Max VisibilityMiles, Mean VisibilityMiles, Min VisibilityMiles, Max Wind SpeedMPH, Mean Wind SpeedMPH, Max Gust SpeedMPH,PrecipitationIn, CloudCover, Events, WindDirDegrees
2014-3-1,68,55,42,46,42,34,100,73,28,30.34,30.24,30.15,10,10,7,8,3,,0.00,4,,95
2014-3-2,77,57,37,50,44,37,100,73,34,30.27,30.17,30.02,10,9,4,9,2,,0.00,0,,214
2014-3-3,68,57,46,63,52,41,100,84,68,30.14,29.97,29.88,10,10,5,16,7,23,0.00,5,Rain,260
2014-3-4,42,38,35,41,33,28,93,79,65,30.25,30.19,30.14,10,10,5,14,10,21,0.00,8,,60
2014-3-5,57,46,35,45,38,28,100,85,63,30.22,30.16,30.09,10,10,4,8,5,,0.00,5,Rain,68
2014-3-6,42,38,35,43,37,36,100,93,81,30.18,30.07,29.96,10,7,1,17,9,23,0.00,8,Rain,53
2014-3-7,51,44,37,46,41,36,100,93,71,30.10,29.98,29.89,10,6,0,12,5,17,0.00,7,Fog,9
2014-3-8,71,52,33,50,43,34,100,76,40,30.21,30.13,30.08,10,10,4,12,3,16,0.00,1,,253
2014-3-9,77,60,44,52,47,45,100,68,34,30.21,30.14,30.08,10,10,10,13,5,18,0.00,0,,284
2014-3-10,77,60,42,52,48,43,100,68,36,30.12,30.04,29.94,10,10,7,17,5,22,0.00,0,,288
2014-3-11,80,62,44,55,51,45,100,70,37,29.97,29.88,29.79,10,9,3,10,3,17,0.00,1,,245
2014-3-12,73,60,48,63,55,32,100,78,54,29.93,29.71,29.59,10,9,3,25,9,39,0.00,6,Rain,254
2014-3-13,59,47,35,34,26,19,93,50,23,30.28,30.13,29.94,10,10,10,22,11,31,0.00,0,,327
2014-3-14,68,49,30,43,31,23,100,62,21,30.37,30.27,30.18,10,10,7,10,2,16,0.00,0,,201
2014-3-15,73,62,50,54,45,36,82,56,33,30.19,30.12,30.04,10,10,10,9,3,,0.00,3,,251
2014-3-16,60,58,55,61,56,50,100,89,72,30.04,29.85,29.68,10,8,1,17,3,24,0.00,7,Rain-Thunderstorm,143
2014-3-17,60,51,42,61,54,43,100,98,93,29.86,29.75,29.68,10,9,2,14,5,20,0.00,8,Rain,120
2014-3-18,59,48,37,46,42,37,100,87,63,30.14,29.98,29.83,10,8,2,14,8,18,0.00,6,,54
2014-3-19,66,54,42,52,46,43,100,85,56,30.21,30.14,30.07,10,8,2,10,4,16,0.00,6,,91
2014-3-20,73,58,42,54,42,28,100,65,25,30.13,30.08,30.01,10,9,2,10,2,17,0.00,0,,330
2014-3-21,75,54,33,52,36,30,100,57,20,30.21,30.12,30.07,10,10,10,8,2,,0.00,0,,138
2014-3-22,80,65,50,54,49,43,100,69,28,30.11,30.05,29.98,10,10,10,8,2,,0.00,2,,241
2014-3-23,73,60,46,59,52,43,100,76,53,30.12,30.01,29.94,10,10,7,14,3,21,0.00,2,Rain,303
2014-3-24,64,54,44,46,41,36,93,64,34,30.24,30.13,30.03,10,10,3,13,6,20,0.00,1,,79
2014-3-25,62,52,41,46,33,21,93,54,25,30.19,29.98,29.89,10,10,10,24,8,36,0.00,2,,310
2014-3-26,60,45,30,36,22,12,93,49,17,30.37,30.29,30.19,10,10,10,12,5,21,0.00,0,,328
2014-3-27,71,52,32,50,38,30,100,65,26,30.41,30.32,30.22,10,10,10,16,4,23,0.00,1,,158
2014-3-28,62,56,51,61,56,50,100,94,77,30.25,30.15,30.01,10,8,2,22,4,31,0.00,6,Rain,107
2014-3-29,77,66,53,63,59,45,100,81,54,30.03,29.90,29.80,10,8,0,23,7,31,0.00,5,Fog-Rain,245
2014-3-30,69,56,44,45,37,32,81,52,25,30.12,30.05,29.97,10,10,10,17,11,26,0.00,0,,313
2014-3-31,78,56,35,50,38,32,100,58,18,30.20,30.14,30.09,10,10,10,7,2,,0.00,0,,292